TimeCST,TemperatureF,Dew PointF,Humidity,Sea Level PressureIn,VisibilityMPH,Wind Direction,Wind SpeedMPH,Gust SpeedMPH,PrecipitationIn,Events,Conditions,WindDirDegrees,DateUTC
12:53 AM,36.0,30.0,79,29.88,10.0,ESE,3.5,-,N/A,,Clear,120,2012-12-19 06:53:00
1:53 AM,37.9,30.9,76,29.88,10.0,East,4.6,-,N/A,,Clear,80,2012-12-19 07:53:00
2:53 AM,39.0,32.0,76,29.86,10.0,ENE,9.2,-,N/A,,Clear,70,2012-12-19 08:53:00
3:53 AM,39.0,32.0,76,29.85,10.0,East,8.1,-,N/A,,Clear,90,2012-12-19 09:53:00
4:53 AM,39.9,32.0,73,29.83,10.0,East,10.4,-,N/A,,Clear,90,2012-12-19 10:53:00
5:53 AM,41.0,32.0,70,29.86,10.0,ENE,9.2,-,N/A,,Clear,60,2012-12-19 11:53:00
6:53 AM,41.0,32.0,70,29.85,10.0,ENE,11.5,-,N/A,,Clear,70,2012-12-19 12:53:00
7:53 AM,39.9,32.0,73,29.84,10.0,East,12.7,-,N/A,,Mostly Cloudy,90,2012-12-19 13:53:00
8:53 AM,39.9,32.0,73,29.83,10.0,East,11.5,-,N/A,,Clear,80,2012-12-19 14:53:00
9:53 AM,39.9,32.0,73,29.82,8.0,East,11.5,-,N/A,,Overcast,90,2012-12-19 15:53:00
10:53 AM,41.0,32.0,70,29.81,9.0,NNE,10.4,-,0.00,Rain,Light Rain,30,2012-12-19 16:53:00
11:53 AM,41.0,33.1,73,29.75,10.0,ENE,13.8,-,0.00,Rain,Light Rain,60,2012-12-19 17:53:00
12:53 PM,41.0,33.1,73,29.71,10.0,East,11.5,-,0.00,,Overcast,80,2012-12-19 18:53:00
1:50 PM,42.8,33.8,70,29.65,10.0,East,13.8,-,N/A,,Overcast,90,2012-12-19 19:50:00
1:53 PM,42.1,33.1,70,29.64,10.0,ENE,13.8,-,N/A,,Overcast,70,2012-12-19 19:53:00
2:53 PM,43.0,34.0,71,29.61,10.0,East,13.8,-,N/A,,Overcast,80,2012-12-19 20:53:00
3:53 PM,42.1,34.0,73,29.57,10.0,East,13.8,21.9,N/A,,Overcast,80,2012-12-19 21:53:00
4:53 PM,42.1,34.0,73,29.58,10.0,ENE,8.1,-,N/A,,Overcast,60,2012-12-19 22:53:00
5:53 PM,41.0,35.1,79,29.59,8.0,NNE,6.9,-,0.00,Rain,Light Rain,20,2012-12-19 23:53:00
6:53 PM,41.0,36.0,82,29.58,7.0,ENE,5.8,-,0.00,,Overcast,60,2012-12-20 00:53:00
7:53 PM,41.0,36.0,82,29.56,7.0,NNE,9.2,-,N/A,,Overcast,30,2012-12-20 01:53:00
8:21 PM,39.9,36.0,86,29.53,6.0,NNE,9.2,-,N/A,,Overcast,30,2012-12-20 02:21:00
8:36 PM,39.9,36.0,86,29.53,6.0,North,11.5,-,N/A,Thunderstorm,Overcast,350,2012-12-20 02:36:00
8:45 PM,39.0,36.0,89,29.52,6.0,North,12.7,-,0.01,Rain-Thunderstorm,Light Thunderstorms and Rain,360,2012-12-20 02:45:00
8:53 PM,39.0,36.0,89,29.54,6.0,North,11.5,-,0.01,Rain-Thunderstorm,Light Thunderstorms and Rain,360,2012-12-20 02:53:00
9:06 PM,39.0,36.0,89,29.52,5.0,North,12.7,-,0.00,Thunderstorm,Overcast,350,2012-12-20 03:06:00
9:14 PM,39.0,36.0,89,29.53,5.0,North,13.8,-,0.00,,Overcast,350,2012-12-20 03:14:00
9:31 PM,37.9,36.0,93,29.52,6.0,North,17.3,-,0.00,Thunderstorm,Overcast,350,2012-12-20 03:31:00
9:53 PM,37.9,35.1,89,29.54,4.0,North,17.3,-,0.03,Rain-Thunderstorm,Light Rain,350,2012-12-20 03:53:00
10:05 PM,37.9,35.1,89,29.52,5.0,North,15.0,25.3,0.00,Rain,Light Rain,350,2012-12-20 04:05:00
10:53 PM,37.0,34.0,89,29.53,5.0,NNW,21.9,29.9,0.02,,Overcast,340,2012-12-20 04:53:00
11:45 PM,37.0,33.1,86,29.51,9.0,North,21.9,31.1,0.00,,Overcast,360,2012-12-20 05:45:00
11:53 PM,37.0,33.1,86,29.54,10.0,North,17.3,31.1,0.00,,Overcast,360,2012-12-20 05:53:00